Location: Aufkirchen
(47.9603°N, 11.3653°E)
Time: 07:29:42
(UTC+01:00)

Transit 4A - Pass Details

Date: 29 November 2020
Orbit: 864 x 981 km, 66.8° (Epoch: 16 January)

Event Time Altitude Azimuth Distance (km) Brightness Sun altitude
Rises 10:38:51 0° 267° (W) 3,661 10.8 17.9°
Reaches altitude 10° 10:42:03 10° 283° (WNW) 2,727 10.1 18.1°
Maximum altitude 10:46:54 22° 332° (NNW) 2,006 9.2 18.4°
Drops below altitude 10° 10:51:45 10° 22° (NNE) 2,740 10.0 18.6°
Sets 10:55:00 0° 37° (NE) 3,684 10.7 18.8°
